IRNSS-1B (39635 NORAD) Tracking and Keplerian Element Data

This shows tracking and keplerian element data for the satellite.

Feedback or suggestion? Click here.




ElementValue
Catalog39635
NameIRNSS-1B
Epoch Orbit3865
Epoch Day286.48785645
Epoch Year2024
RAAN250.84
Inclination29.1904
Eccentricity0.0020106
Argument of Perigee187.0278
Mean Anonmoly174.3569
Mean Motion1.00268498
Decay Rate9.9E-07
L11 39635U 14017A 24286.48785645 .00000099 00000+0 00000+0 0 9994
L22 39635 29.1904 250.8400 0020106 187.0278 174.3569 1.00268498 38659



Live tracking and technical data element details for IRNSS-1B (NORAD 39635). IRNSS-1B can be tracked NOW for your location showing map with azimuth and elevation plus other details from your city location.







IsCatalogInMostPopularTable: catalog: 39635, numindb: 564
Update: records affected: 1



GetName: 39635 IRNSS-1B

Hit Count: updated at: Thu, 15 May 2025 09:17:17 GMT